Stations météo

Publicité
Biscarosse, France (7503): Température de l'air & dewpoint: 25.10.2020 23:00:00 - 31.10.2020 23:00:00 (CET)Biscarosse, France (7503): Température de l'air 5cm: 25.10.2020 23:00:00 - 31.10.2020 23:00:00 (CET)Biscarosse, France (7503): Température de l'air -20cm & Température de l'air -100cm: 25.10.2020 23:00:00 - 31.10.2020 23:00:00 (CET)Biscarosse, France (7503): Vitesse du vent & gusts: 25.10.2020 23:00:00 - 31.10.2020 23:00:00 (CET)Biscarosse, France (7503): Direction du vent: 25.10.2020 23:00:00 - 31.10.2020 23:00:00 (CET)Biscarosse, France (7503): reduced air pressure: 25.10.2020 23:00:00 - 31.10.2020 23:00:00 (CET)Biscarosse, France (7503): visibility: 25.10.2020 23:00:00 - 31.10.2020 23:00:00 (CET)Biscarosse, France (7503): Ensoleillement: 25.10.2020 23:00:00 - 31.10.2020 23:00:00 (CET)Biscarosse, France (7503): Quantités de précipitations: 25.10.2020 23:00:00 - 31.10.2020 23:00:00 (CET)
Date & Time tt [°C] td [°C] tt 5cm [°C] tt -20cm [°C] tt -100cm [°C] ff [km/h] ff [knt] fx [km/h] fx [knt] dd ppp [hPa] vv [km] sd [min] rr [mm]
31.10.2020 23:00:00 17,0 10,8 15,1 15,3 16,8 14 7 24 13 ESE 1021,6 - 0 0,0
31.10.2020 22:00:00 17,0 10,6 14,8 15,3 16,8 11 6 19 11 ESE 1021,3 - 0 0,0
31.10.2020 21:00:00 16,8 10,6 14,5 15,4 16,8 11 6 16 9 ESE 1021,4 - 0 0,0
31.10.2020 20:00:00 16,4 10,5 14,4 15,5 16,8 10 5 13 7 ESE 1021,6 - 0 0,0
31.10.2020 19:00:00 17,3 10,9 15,2 15,4 16,8 8 4 9 5 ESE 1021,8 - 0 0,0
31.10.2020 18:00:00 18,2 12,0 16,5 15,3 16,8 7 4 11 6 SE 1021,8 - 32 0,0
31.10.2020 17:00:00 21,0 11,3 20,6 15,0 16,8 6 3 18 10 S 1021,6 - 60 0,0
31.10.2020 16:00:00 22,6 12,2 23,9 14,7 16,8 11 6 17 9 S 1021,0 - 46 0,0
31.10.2020 15:00:00 22,3 12,0 22,7 14,3 16,9 10 6 17 9 S 1020,8 - 34 0,0
31.10.2020 14:00:00 21,3 12,4 24,1 14,0 16,9 10 5 21 12 SSW 1021,7 - 34 0,0
31.10.2020 13:00:00 22,2 13,0 26,8 13,7 16,9 8 5 14 8 SW 1022,1 - 60 0,0
31.10.2020 12:00:00 21,5 13,1 23,2 13,4 16,9 12 6 22 12 SW 1021,9 - 60 0,0
31.10.2020 11:00:00 18,5 12,3 15,9 13,2 16,9 11 6 23 13 SSE 1021,6 - 60 0,0
31.10.2020 10:00:00 14,8 10,8 11,6 13,2 16,9 11 6 18 10 SSE 1022,3 - 60 0,0
31.10.2020 09:00:00 12,1 10,2 10,3 13,3 16,9 9 5 19 10 SE 1022,4 - 56 0,0
31.10.2020 08:00:00 11,0 10,2 9,6 13,4 16,9 13 7 22 12 SE 1021,7 - 0 0,0
31.10.2020 07:00:00 10,4 9,9 9,1 13,5 16,9 9 5 15 8 SE 1021,7 - 0 0,0
31.10.2020 06:00:00 9,9 9,6 7,6 13,7 16,9 7 4 11 6 SE 1022,1 - 0 0,0
31.10.2020 05:00:00 9,2 8,7 7,8 13,8 16,9 3 1 10 6 W 1022,2 - 0 0,0
31.10.2020 04:00:00 10,3 9,8 8,4 14,0 16,9 6 4 10 5 ESE 1022,1 - 0 0,0
31.10.2020 03:00:00 11,2 10,7 8,3 14,2 16,9 4 2 7 4 SE 1022,7 - 0 0,0
31.10.2020 02:00:00 11,6 10,8 8,7 14,3 16,9 2 1 9 5 SE 1023,0 - 0 0,0
31.10.2020 01:00:00 13,0 12,4 9,8 14,4 16,9 6 3 8 4 ESE 1023,3 - 0 0,0
31.10.2020 00:00:00 12,3 11,4 9,1 14,6 16,9 6 3 7 4 SE 1023,7 - 0 0,0
30.10.2020 23:00:00 11,6 10,3 9,5 14,8 16,9 6 3 6 4 SSE 1023,9 - 0 0,0
30.10.2020 22:00:00 11,9 10,5 9,8 15,0 16,9 5 3 7 4 SSE 1024,0 - 0 0,0
30.10.2020 21:00:00 13,0 10,7 10,8 15,1 16,9 0 0 7 4 N 1023,9 20 0 0,0
30.10.2020 20:00:00 13,2 11,9 11,4 15,2 16,9 5 3 6 4 E 1024,3 9 0 0,0
30.10.2020 19:00:00 14,2 12,9 12,5 15,2 16,9 4 2 7 4 E 1024,3 4,7 0 0,0
30.10.2020 18:00:00 15,2 12,9 13,6 15,1 16,9 5 3 8 5 NNW 1024,2 4,5 21 0,0
30.10.2020 17:00:00 16,6 12,9 16,9 15,0 16,9 5 3 9 5 WNW 1024,1 8 60 0,0
30.10.2020 16:00:00 17,6 12,9 23,6 14,8 16,9 6 3 10 5 WNW 1024,3 13 60 0,0
30.10.2020 15:00:00 18,6 13,2 25,1 14,6 16,9 6 4 10 6 W 1024,4 13 60 0,0
30.10.2020 14:00:00 18,1 13,4 25,1 14,3 16,9 10 5 12 6 WNW 1024,5 16 60 0,0
30.10.2020 13:00:00 20,5 13,5 25,6 14,0 16,9 6 3 9 5 WNW 1024,7 5 60 0,0
30.10.2020 12:00:00 19,2 12,7 21,1 13,8 16,9 4 2 13 7 ESE 1025,2 20 60 0,0
30.10.2020 11:00:00 16,3 11,9 15,8 13,6 16,9 6 3 16 8 ESE 1025,3 20 60 0,0
30.10.2020 10:00:00 13,7 10,1 11,3 13,7 16,9 7 4 24 13 ESE 1025,7 20 60 0,0
30.10.2020 09:00:00 11,9 9,5 9,6 13,8 16,9 10 5 23 12 E 1025,6 20 57 0,0
30.10.2020 08:00:00 10,4 9,0 9,0 14,0 16,9 8 5 22 12 E 1025,2 20 0 0,0
30.10.2020 07:00:00 10,2 9,1 9,1 14,2 16,9 14 8 25 13 ESE 1025,1 20 0 0,0
30.10.2020 06:00:00 10,7 9,5 9,4 14,3 16,9 13 7 22 12 ESE 1025,2 20 0 0,0
30.10.2020 05:00:00 10,8 9,7 9,6 14,5 16,9 13 7 21 12 ESE 1025,2 20 0 0,0
30.10.2020 04:00:00 10,8 9,9 9,6 14,7 16,9 7 4 13 7 E 1025,5 20 0 0,0
30.10.2020 03:00:00 11,1 10,3 9,5 14,8 16,9 7 4 13 7 E 1025,6 20 0 0,0
30.10.2020 02:00:00 11,4 10,6 9,6 15,0 16,9 9 5 13 7 E 1025,5 19 0 0,0
30.10.2020 01:00:00 12,3 11,4 10,8 15,2 16,9 6 4 15 8 E 1025,7 15 0 0,2
30.10.2020 00:00:00 12,8 12,0 11,4 15,4 16,9 8 4 14 7 E 1026,0 6 0 0,0
29.10.2020 23:00:00 12,7 11,8 11,4 15,6 16,9 10 5 15 8 ENE 1026,1 9 0 0,0
29.10.2020 22:00:00 12,9 12,1 10,7 15,8 16,9 9 5 13 7 E 1026,2 7 0 0,0
29.10.2020 21:00:00 13,3 12,2 11,4 16,0 16,9 7 4 10 5 ENE 1026,1 7 0 0,0
29.10.2020 20:00:00 13,6 12,0 11,7 16,1 16,9 5 3 8 5 E 1025,9 7 0 0,0
29.10.2020 19:00:00 13,8 12,0 12,5 16,2 16,9 4 2 10 5 ENE 1025,7 5 0 0,0
29.10.2020 18:00:00 15,5 12,4 14,2 16,2 16,9 8 5 11 6 NNW 1025,4 4,2 26 0,0
29.10.2020 17:00:00 16,8 12,7 17,2 16,0 16,9 8 4 11 6 NW 1025,6 5 60 0,0
29.10.2020 16:00:00 18,1 12,3 23,9 15,9 16,9 7 4 11 6 WNW 1025,7 12 60 0,0
29.10.2020 15:00:00 18,2 12,4 - 15,7 16,8 9 5 12 7 WNW 1025,8 15 - -
29.10.2020 14:00:00 - - - - - 10 5 14 8 W - 5 - -
29.10.2020 13:00:00 - - - - - 12 7 16 8 W - 17 - -
29.10.2020 12:00:00 - - - - - 16 8 18 10 WSW - 7 - -
29.10.2020 11:00:00 17,6 13,3 19,4 14,7 16,8 15 8 24 13 W 1027,0 7 53 0,0
29.10.2020 10:00:00 17,1 13,4 16,4 14,7 16,8 21 11 27 15 WSW 1026,4 7 58 0,0
29.10.2020 09:00:00 16,0 13,3 15,0 14,7 16,7 23 13 31 17 WSW 1026,3 7 21 0,0
29.10.2020 08:00:00 15,6 13,1 14,6 14,7 16,8 25 14 33 18 W 1025,6 8 0 0,0
29.10.2020 07:00:00 15,5 13,2 14,4 14,8 16,8 27 15 34 18 WSW 1025,2 6 0 0,0
29.10.2020 06:00:00 15,6 13,1 14,5 14,9 16,8 27 14 34 19 W 1025,3 7 0 0,0
29.10.2020 05:00:00 15,5 13,0 14,3 15,0 16,8 26 14 32 17 WSW 1024,8 7 0 0,0
29.10.2020 04:00:00 15,4 12,3 14,3 15,1 16,8 24 13 30 16 WSW 1024,7 7 0 0,0
29.10.2020 03:00:00 15,6 12,7 14,6 15,1 16,8 23 13 31 17 WSW 1024,7 5 0 0,0
29.10.2020 02:00:00 15,6 12,9 14,5 15,2 16,8 25 14 30 16 WSW 1024,5 6 0 0,0
29.10.2020 01:00:00 15,9 12,8 14,9 15,3 16,8 26 14 35 19 W 1024,5 6 0 0,0
29.10.2020 00:00:00 15,7 13,0 14,6 15,4 16,8 25 14 32 18 W 1024,4 6 0 0,0
28.10.2020 23:00:00 15,7 12,4 14,5 15,5 16,8 27 15 33 18 W 1023,9 8 0 0,0
28.10.2020 22:00:00 15,7 12,4 14,7 15,6 16,8 29 16 42 23 WSW 1023,3 8 0 0,0
28.10.2020 21:00:00 16,1 11,7 14,8 15,7 16,8 33 18 40 22 W 1023,2 11 0 0,0
28.10.2020 20:00:00 15,9 11,5 14,8 15,8 16,8 31 17 41 22 W 1022,3 13 0 0,0
28.10.2020 19:00:00 16,1 11,0 15,0 15,9 16,7 33 18 41 22 W 1022,2 12 0 0,0
28.10.2020 18:00:00 16,2 11,4 15,6 15,9 16,8 30 16 43 23 W 1021,7 11 16 0,0
28.10.2020 17:00:00 16,3 11,4 16,2 15,9 16,8 34 18 44 24 W 1021,6 14 44 0,0
28.10.2020 16:00:00 16,9 11,4 18,2 15,7 16,8 34 19 45 25 WSW 1021,1 13 38 0,0
28.10.2020 15:00:00 17,5 13,2 18,7 15,5 16,8 34 18 43 23 WSW 1020,4 12 22 0,0
28.10.2020 14:00:00 17,6 12,1 19,5 15,2 16,8 31 17 41 22 WSW 1020,4 17 24 0,0
28.10.2020 13:00:00 17,3 13,6 17,8 15,0 16,8 32 18 40 22 WSW 1020,5 17 17 0,0
28.10.2020 12:00:00 17,7 13,6 17,5 14,8 16,8 29 16 38 21 WSW 1020,4 19 29 0,0
28.10.2020 11:00:00 15,6 14,0 14,6 14,6 16,8 22 12 37 20 W 1020,0 12 2 0,0
28.10.2020 10:00:00 15,9 13,4 15,1 14,6 16,8 29 15 37 20 WSW 1019,4 17 8 0,0
28.10.2020 09:00:00 15,1 12,8 13,9 14,6 16,8 28 15 35 19 WSW 1018,7 17 0 0,0
28.10.2020 08:00:00 14,4 12,4 13,2 14,6 16,8 27 14 32 17 WSW 1017,7 19 0 0,0
28.10.2020 07:00:00 14,2 12,6 13,5 14,6 16,8 23 13 38 21 WSW 1017,1 10 0 0,0
28.10.2020 06:00:00 14,5 13,0 13,8 14,6 16,9 32 18 40 22 W 1016,8 14 0 0,0
28.10.2020 05:00:00 14,2 13,1 13,2 14,6 16,9 27 15 42 23 WSW 1016,4 13 0 0,0
28.10.2020 04:00:00 14,3 13,5 13,6 14,6 16,8 32 17 38 21 WSW 1016,3 6 0 0,0
28.10.2020 03:00:00 14,0 13,4 13,6 14,6 16,8 19 11 38 21 WSW 1015,8 7 0 0,8
28.10.2020 02:00:00 14,4 13,6 13,5 14,6 16,9 28 15 37 20 WNW 1015,9 5 0 0,2
28.10.2020 01:00:00 14,2 13,6 13,9 14,7 16,9 26 14 44 24 W 1015,6 2,6 0 1,4
28.10.2020 00:00:00 15,0 14,2 13,3 14,6 16,9 30 16 37 20 WSW 1014,9 2,5 0 0,2
27.10.2020 23:00:00 13,9 12,6 13,2 14,7 16,9 10 6 21 11 S 1014,7 19 0 0,0
27.10.2020 22:00:00 14,3 13,2 13,8 14,7 16,9 13 7 35 19 S 1014,2 6 0 0,0
27.10.2020 21:00:00 14,4 13,4 13,7 14,7 16,9 26 14 47 25 SSW 1014,1 3,2 0 0,0
27.10.2020 20:00:00 14,2 13,1 13,5 14,7 16,9 29 16 51 28 SSW 1013,6 9 0 0,0
27.10.2020 19:00:00 14,1 13,1 13,3 14,8 17,0 30 16 44 24 SSW 1013,4 7 0 0,2
27.10.2020 18:00:00 13,9 13,1 13,4 14,7 16,9 28 15 49 26 SSW 1013,1 3,5 0 0,8
27.10.2020 17:00:00 14,4 12,6 13,2 14,7 17,0 39 21 57 31 SW 1013,2 4,9 0 1,0
27.10.2020 16:00:00 15,9 10,9 16,0 14,5 17,0 28 15 44 24 SSW 1012,7 19 0 0,0
27.10.2020 15:00:00 15,7 10,2 16,1 14,4 17,0 32 17 46 25 SSW 1012,6 19 0 0,0
27.10.2020 14:00:00 15,6 9,9 15,2 14,1 17,0 34 19 44 24 SSW 1012,8 20 0 0,0
27.10.2020 13:00:00 14,7 11,8 13,7 13,9 17,0 26 14 44 24 SSW 1013,6 16 0 0,0
27.10.2020 12:00:00 13,6 12,2 13,0 13,8 17,0 28 15 46 25 W 1014,4 7 0 0,8
27.10.2020 11:00:00 14,5 12,0 13,3 13,7 17,0 31 17 50 27 SW 1014,2 14 0 0,0
27.10.2020 10:00:00 14,0 11,7 12,9 13,6 17,1 39 21 50 27 WSW 1014,4 13 4 0,2
27.10.2020 09:00:00 13,8 11,8 12,6 13,5 17,1 42 23 54 29 WSW 1014,4 9 0 0,8
27.10.2020 08:00:00 13,3 12,0 12,5 13,5 17,1 41 22 59 32 W 1014,0 3,4 0 1,4
27.10.2020 07:00:00 14,7 10,7 13,6 13,5 17,1 39 21 53 28 W 1013,8 19 0 0,0
27.10.2020 06:00:00 14,1 11,1 12,3 13,5 17,1 38 20 49 26 W 1013,7 12 0 0,0
27.10.2020 05:00:00 14,0 11,5 12,2 13,5 17,1 32 17 44 24 W 1013,7 10 0 0,0
27.10.2020 04:00:00 13,8 10,8 12,1 13,6 17,1 31 17 54 29 W 1014,3 8 0 0,0
27.10.2020 03:00:00 14,5 9,3 11,8 13,6 17,1 35 19 48 26 W 1014,7 18 0 0,0
27.10.2020 02:00:00 13,9 10,3 11,3 13,7 17,2 37 20 49 26 W 1014,9 15 0 0,0
27.10.2020 01:00:00 13,8 10,2 10,9 13,7 17,1 32 17 46 25 W 1015,0 11 0 0,0
27.10.2020 00:00:00 12,5 9,5 10,4 13,8 17,2 28 15 49 26 W 1015,3 16 0 0,2
26.10.2020 23:00:00 12,1 9,3 10,4 13,9 17,2 24 13 59 32 WNW 1015,5 11 0 0,2
26.10.2020 22:00:00 12,9 9,5 10,4 14,0 17,2 35 19 56 31 W 1015,4 15 0 1,2
26.10.2020 21:00:00 13,4 10,2 11,0 14,1 17,2 39 21 55 30 W 1014,9 11 0 0,6
26.10.2020 20:00:00 14,3 8,9 12,8 14,2 17,3 33 18 44 24 W 1014,9 16 0 0,0
26.10.2020 19:00:00 13,8 8,0 12,7 14,3 17,2 33 18 49 26 W 1014,6 17 0 0,0
26.10.2020 18:00:00 13,8 8,4 11,4 14,3 17,3 36 19 58 31 W 1014,1 20 15 0,0
26.10.2020 17:00:00 13,9 9,3 11,8 14,3 17,3 28 15 47 26 W 1013,9 16 22 0,2
26.10.2020 16:00:00 14,7 8,6 15,0 14,2 17,3 31 17 47 26 W 1013,6 17 39 0,0
26.10.2020 15:00:00 15,2 9,1 17,5 14,1 17,3 33 18 43 23 W 1013,2 16 58 0,0
26.10.2020 14:00:00 13,9 8,9 11,8 13,9 17,4 26 14 41 22 W 1013,2 16 17 0,2
26.10.2020 13:00:00 14,0 7,5 14,3 13,8 17,4 31 17 54 29 NW 1014,0 18 17 0,0
26.10.2020 12:00:00 15,1 9,7 14,2 13,7 17,4 36 19 51 28 W 1013,3 18 22 0,0
26.10.2020 11:00:00 14,3 9,3 11,0 13,6 17,5 36 19 54 29 W 1012,7 17 7 0,0
26.10.2020 10:00:00 12,2 9,2 10,5 13,6 17,5 39 21 78 42 WNW 1012,5 9 10 0,2
26.10.2020 09:00:00 13,4 9,8 10,7 13,7 17,5 40 22 61 33 W 1012,0 12 10 0,0
26.10.2020 08:00:00 12,0 9,6 8,9 13,9 17,5 40 22 90 48 WNW 1010,9 15 0 3,1
26.10.2020 07:00:00 11,5 9,2 9,6 14,0 17,5 20 11 74 40 W 1010,1 9 0 1,2
26.10.2020 06:00:00 11,9 7,6 9,5 14,1 17,5 40 21 71 39 W 1009,7 9 0 0,4
26.10.2020 05:00:00 11,8 9,2 9,4 14,2 17,6 26 14 64 34 W 1009,5 11 0 1,4
26.10.2020 04:00:00 11,7 8,5 10,0 14,3 17,6 45 25 74 40 W 1009,0 14 0 0,2
26.10.2020 03:00:00 12,1 8,4 10,0 14,5 17,6 23 13 55 30 WNW 1008,9 16 0 0,2
26.10.2020 02:00:00 13,2 9,3 9,6 14,6 17,6 32 17 40 22 W 1009,2 17 0 0,0
26.10.2020 01:00:00 11,3 9,0 9,3 14,8 17,6 17 9 59 32 WNW 1009,1 13 0 4,1
26.10.2020 00:00:00 12,8 10,5 10,6 15,0 17,7 32 17 66 35 W 1008,9 9 0 1,0
25.10.2020 23:00:00 12,0 9,7 10,6 15,2 17,7 18 10 50 27 W 1009,3 6 0 1,8

tt = Température de l'air
td = dewpoint
tt 5cm = Température de l'air 5cm
tt -20cm = Température de l'air -20cm
tt -100cm = Température de l'air -100cm
ff = Vitesse du vent
fx = gusts
dd = Direction du vent
ppp = reduced air pressure
vv = visibility
sd = Ensoleillement
rr = Quantités de précipitations

stations d'obs. à proximité